SCP
-0 -0 -0 -0 -0 -0 -0 -0 -0 -0 0 -0 -0 0 0 0 0 0 0 0 0 0 0 0 0 0 0 0 0 0 0 0 0 0 0 -0 -0 0 0 0 0 0 0
-0 -0 -0 -0 -0 -0 -0 0 0 0 -0 -0 -0 0 0 -0 0 0 0 0 0 0 0 0 0 0 0 0 0 0 0 0 0 0 0 0 0 0 0 0 0 0 0
-0 -0 -0 -0 -0 -0 -0 -0 -0 -0 0 0 0 -0 -0 0 0 -0 -0 -0 0 0 0 0 0 0 0 0 0 0 0 0 0 0 0 0 0 -0 -0 0 0 0 0
-0 -0 -0 -0 -0 -0 -0 -0 -0 -0 -0 -0 -0 -0 0 0 0 0 -0 -0 -0 -0 0 0 0 0 0 0 0 0 0 0 0 0 0 0 0 0 0 0 -0 -0 0
-0 -0 -0 -0 -0 -0 -0 -0 -0 -0 -0 0 0 -0 -0 0 0 0 0 0 0 0 0 0 0 0 0 0 0 0 0 0 0 0 0 0 0 0 0 0 -0 0 0
-0 -0 -0 -0 -0 -0 -0 -0 -0 -0 0 0 0 -0 -0 0 0 0 0 0 0 0 -0 0 0 0 0 0 0 0 0 0 0 0 0 0 0 0 0 -0 -0 -0 0
-0 -0 -0 -0 -0 -0 -0 -0 -0 -0 0 0 -0 -0 -0 -0 -0 -0 -0 0 0 0 0 0 0 0 0 0 0 -0 0 -0 0 0 0 0 0 0 0 0 0 0 -0
-0 -0 -0 -0 -0 -0 -0 -0 -0 -0 -0 -0 -0 -0 -0 0 0 0 0 0 0 0 0 -0 0 -0 -0 -0 -0 -0 -0 -0 0 0 0 0 0 0 0 0 0 0 0
-0 -0 -0 0 -0 -0 -0 -0 -0 -0 -0 -0 -0 -0 -0 -0 -0 -0 -0 -0 0 0 -0 0 0 0 0 -0 -0 -0 -0 -0 0 0 0 0 0 0 0 0 0 0 0
-0 -0 -0 0 0 0 0 -0 -0 -0 -0 -0 -0 -0 0 0 0 -0 0 0 0 0 -0 0 0 0 0 0 0 -0 -0 -0 0 0 0 0 0 0 0 0 0 -0 -0
0 -0 -0 -0 0 0 0 0 -0 -0 -0 -0 -0 -0 0 0 0 0 0 0 0 0 -0 0 0 0 0 0 0 -0 0 0 0 0 0 0 0 0 0 0 0 0 0
0 0 -0 -0 -0 -0 -0 -0 0 0 -0 -0 0 0 0 0 0 0 0 0 0 0 0 0 0 0 0 0 0 0 0 0 0 0 0 0 0 0 0 0 0 0 0
-0 -0 -0 0 0 0 -0 -0 -0 -0 -0 -0 0 0 0 0 0 0 0 0 0 0 0 0 -0 0 0 0 0 0 0 0 0 0 0 0 0 0 0 0 0 0 0
-0 -0 -0 -0 0 -0 0 -0 -0 -0 -0 -0 -0 -0 0 0 0 0 0 0 0 0 0 0 0 0 0 0 0 0 0 0 0 0 0 -0 0 0 0 0 0 0 0
-0 -0 -0 -0 0 0 0 0 -0 0 -0 -0 -0 -0 0 0 0 0 0 0 0 0 0 0 0 0 0 0 0 0 0 0 0 0 0 -0 -0 0 0 0 -0 -0 0
-0 0 -0 -0 -0 0 0 0 0 0 0 0 0 0 0 0 0 0 0 0 0 0 0 0 0 0 0 0 0 0 0 0 0 0 0 0 -0 -0 0 0 0 0 0
-0 -0 0 -0 -0 -0 0 0 0 0 0 0 0 0 0 0 0 0 0 0 0 0 0 0 0 0 0 0 0 0 0 0 0 0 0 0 0 -0 -0 0 -0 -0 -0
-0 -0 -0 -0 -0 -0 -0 0 0 0 0 0 0 0 0 0 0 0 0 0 0 0 0 0 0 0 0 0 0 0 0 0 0 0 0 0 0 0 -0 -0 0 -0 -0
-0 -0 -0 -0 -0 -0 -0 0 0 0 0 0 0 0 0 0 0 0 0 0 0 0 0 0 0 0 0 0 0 0 0 0 0 0 0 0 0 0 0 -0 -0 -0 0
-0 -0 -0 0 -0 0 0 0 0 0 0 0 0 0 0 0 0 0 0 0 0 0 0 0 0 0 0 0 0 0 0 0 0 0 0 0 0 0 0 0 0 0 -0
0 -0 -0 0 0 0 0 0 0 0 0 0 0 0 0 0 0 0 0 0 0 0 0 0 0 0 0 0 0 0 0 0 0 0 0 0 0 0 0 0 0 0 0
-0 -0 0 0 0 0 0 0 0 0 0 0 0 0 0 0 0 0 0 0 0 0 0 0 0 0 0 0 0 0 0 0 0 0 0 0 0 0 0 0 0 0 0
-0 0 0 0 0 0 0 0 0 0 0 0 0 0 0 0 0 0 0 0 0 0 0 0 0 0 0 0 0 0 0 0 0 0 0 0 0 0 0 0 0 0 0
0 0 0 1 0 1 0 0 0 0 0 0 0 0 0 0 0 0 0 0 0 0 0 0 0 0 0 0 0 0 0 0 0 0 0 0 0 0 0 0 0 0 0
1 1 1 1 1 1 1 1 1 0 0 0 0 0 0 0 0 0 0 0 0 0 0 0 0 0 0 0 0 0 0 0 0 0 0 0 0 0 0 0 0 0 0
1 3 4 2 2 1 1 1 0 0 0 0 0 0 0 0 0 0 0 0 0 0 0 0 0 0 0 0 0 0 0 0 0 0 0 0 0 0 0 0 0 0 0
Wind_Speed_500mb
40 33 27 23 22 22 23 27 30 29 28 26 25 25 25 24 23 21 19 16 13 10 7 7 9 11 13 13 11 15 19 18 16 16 16 14 13 13 15 16 15 20 21
44 35 30 26 25 24 27 30 30 29 28 26 26 26 27 28 28 27 25 22 19 15 12 10 11 13 16 17 14 16 17 16 16 14 12 10 9 8 8 10 17 18 19
41 36 32 27 26 28 29 29 29 29 27 26 26 27 28 29 30 30 29 26 23 21 20 18 16 15 16 17 16 19 18 17 16 15 13 14 10 8 10 11 15 17 18
39 36 33 30 30 30 29 28 28 27 25 26 26 28 29 29 29 31 30 28 25 24 24 22 20 15 15 17 18 21 18 15 14 9 8 12 8 7 11 14 15 17 19
38 33 31 30 30 29 29 28 26 26 25 26 28 29 28 28 29 29 29 28 27 27 25 24 23 23 21 21 22 21 15 13 16 18 26 15 13 14 14 15 17 17 18
36 32 31 30 29 28 28 27 25 24 25 27 28 27 28 29 28 28 28 27 27 26 27 27 27 27 25 24 19 17 12 8 10 15 21 18 14 14 13 10 13 16 19
34 31 30 29 29 27 26 25 23 24 25 25 26 27 28 30 30 30 28 26 25 24 26 26 25 23 22 14 9 7 8 16 16 16 8 8 7 7 9 12 13 17 19
23 29 30 31 28 26 26 24 23 23 23 24 25 25 29 34 34 34 31 27 24 24 24 23 21 19 19 13 9 10 10 11 18 12 11 8 8 7 11 14 16 19 21
25 24 28 31 29 28 26 23 22 22 22 22 22 23 27 31 37 39 36 30 28 20 20 20 19 24 25 17 16 16 19 16 8 12 15 20 18 15 16 17 18 20 21
17 18 24 28 27 25 24 23 21 20 21 21 19 17 21 26 30 33 33 32 31 23 19 24 28 30 24 18 19 17 17 19 14 16 3 13 16 17 20 21 20 20 22
22 22 17 21 23 22 21 20 19 19 19 19 16 14 17 21 21 26 27 25 29 23 21 18 17 20 15 12 12 11 9 10 8 7 6 7 7 10 10 14 15 17 24
26 24 21 18 20 18 17 16 15 16 17 15 13 10 12 15 16 16 16 18 14 19 15 13 9 15 18 6 5 7 12 17 18 15 8 5 3 2 7 12 16 18 17
20 27 24 23 29 14 18 10 12 11 10 11 8 5 9 9 11 10 8 7 8 14 13 20 12 6 13 4 16 4 6 13 16 17 15 5 5 7 10 12 19 20 20
29 27 28 24 19 14 13 8 11 10 12 8 9 10 9 6 5 8 7 5 8 7 4 18 12 17 21 17 13 8 9 7 12 18 21 12 6 5 6 7 19 17 20
30 33 30 29 21 17 13 13 9 9 5 3 2 4 3 5 2 10 9 5 4 8 6 14 7 15 10 16 12 2 3 1 10 16 17 13 6 4 4 9 13 17 20
34 35 33 29 24 21 18 17 15 17 10 5 4 5 8 12 14 15 10 7 11 9 5 9 4 13 5 8 6 5 10 7 16 19 15 11 6 3 8 11 14 16 16
43 38 37 33 29 29 28 22 16 16 12 9 12 17 17 18 13 14 15 8 15 12 9 13 14 19 9 12 11 7 9 6 15 12 9 11 11 7 6 10 13 16 18
43 44 46 41 36 42 36 31 24 19 18 19 17 22 20 19 18 15 14 13 15 19 16 18 10 10 15 19 16 21 15 9 12 11 5 6 9 10 9 8 11 14 16
51 47 43 43 39 42 55 48 38 33 33 23 22 20 22 22 19 17 7 17 18 25 28 19 12 13 16 24 15 28 26 23 17 14 7 5 4 3 5 10 9 11 14
54 50 43 37 38 36 43 49 42 35 26 24 27 28 24 20 19 19 17 20 22 26 27 22 12 22 24 31 22 19 27 35 28 25 19 16 12 7 5 5 6 10 12
59 52 51 42 46 42 43 41 42 38 24 23 16 18 17 20 24 24 26 26 25 22 14 19 19 22 24 30 25 25 21 40 41 35 32 30 27 21 16 13 11 13 14
60 57 48 47 46 38 41 36 31 30 28 21 19 24 23 26 24 27 26 27 26 24 22 22 27 26 24 32 36 34 24 34 53 49 46 45 42 36 31 27 26 22 20
69 67 50 46 40 36 34 37 35 35 39 34 33 30 19 20 20 21 23 22 22 22 27 30 32 35 35 30 37 36 18 28 28 42 59 59 58 54 47 41 38 38 34
57 53 43 40 37 34 33 39 41 43 40 30 30 28 25 25 16 13 6 9 16 19 24 30 33 41 43 39 35 52 50 41 25 24 34 43 53 70 65 59 49 49 48
50 43 34 34 36 35 37 40 36 40 35 24 28 33 32 26 22 20 17 14 10 11 17 21 31 37 42 45 41 41 55 51 52 54 60 53 47 59 72 72 64 58 57
44 38 36 31 30 28 32 36 39 35 38 37 31 35 33 29 25 27 27 26 25 21 15 19 24 33 37 47 49 47 51 63 62 56 49 56 60 57 61 73 75 77 70
Wind_Direction_500mb
176 163 159 156 150 139 128 120 111 106 98 88 81 75 72 69 66 62 58 57 58 65 81 108 121 124 118 117 133 122 118 125 121 115 113 111 107 95 78 74 94 102 115
170 160 160 158 149 135 130 121 117 108 97 87 79 75 73 71 69 64 58 56 58 61 64 77 104 116 120 131 147 132 128 119 109 108 112 113 113 108 86 86 100 106 112
161 157 157 154 142 132 129 123 113 102 91 81 77 76 76 72 69 65 60 60 64 66 65 72 87 104 122 136 135 134 135 129 119 109 109 90 89 95 100 106 107 109 117
154 155 155 151 140 136 128 121 112 101 91 86 85 83 76 70 67 64 61 64 69 72 73 74 78 91 109 118 126 134 138 124 103 95 116 138 105 122 115 114 115 111 115
150 154 152 144 140 132 127 124 114 101 93 90 86 82 78 73 68 61 59 61 62 68 73 76 79 81 91 101 113 118 119 110 89 99 119 118 113 109 116 117 112 118 116
147 154 150 143 138 134 134 126 112 101 94 92 91 88 81 72 67 60 57 60 66 71 79 82 78 76 81 86 107 113 91 40 120 142 121 112 102 113 128 134 128 126 123
155 153 149 145 141 137 135 126 115 101 97 100 98 88 78 70 61 57 55 58 64 73 82 87 85 77 69 67 79 63 68 59 149 149 104 92 133 147 150 148 145 138 132
159 156 155 149 144 140 141 132 117 110 109 107 99 94 83 74 65 58 53 54 62 74 84 89 93 76 56 56 39 49 52 82 134 110 89 106 86 137 144 148 146 147 142
157 161 158 152 150 151 146 137 128 120 118 115 110 100 89 81 67 59 57 55 55 72 83 84 80 68 81 69 70 55 74 83 93 88 98 80 79 102 116 127 133 142 145
148 166 162 157 156 153 150 145 136 129 125 123 123 107 87 80 64 59 56 61 49 59 83 96 84 82 77 59 87 90 67 76 57 357 41 116 123 115 109 107 120 135 142
121 133 154 160 159 157 157 151 144 138 136 131 125 105 84 78 71 58 47 49 48 55 80 104 100 81 72 47 94 82 50 58 37 354 140 140 150 155 165 145 131 132 134
147 142 130 152 167 155 161 158 155 152 145 139 132 114 78 77 59 50 45 26 46 44 64 54 92 67 61 189 225 73 49 42 55 57 48 113 144 208 221 210 166 163 177
172 164 156 139 152 130 141 135 174 164 144 153 160 100 95 61 46 41 69 17 9 22 22 34 19 73 45 75 203 187 49 93 55 37 27 9 317 307 281 229 144 147 163
187 181 167 167 170 168 162 134 158 163 141 133 115 78 95 42 346 354 341 355 347 354 2 26 44 113 74 95 127 128 70 57 39 17 11 352 288 246 214 166 155 160 158
190 187 183 185 176 180 177 166 179 205 159 112 181 352 208 294 274 290 305 311 278 301 342 7 31 150 70 125 136 142 158 306 346 338 347 352 320 252 166 139 149 154 156
190 188 194 196 184 187 186 197 218 218 190 175 190 297 276 292 255 280 280 283 304 315 320 6 12 173 99 167 166 14 321 316 332 333 355 13 20 81 125 138 143 149 155
201 198 204 211 206 214 211 209 214 207 213 233 283 268 254 280 304 300 274 263 299 284 307 314 297 229 212 216 242 299 347 332 342 348 1 29 43 60 112 137 146 149 149
204 203 200 206 222 228 218 206 215 212 220 241 254 245 250 272 292 311 279 261 293 289 278 277 271 242 211 192 244 266 264 285 329 336 346 55 42 61 92 116 137 146 149
215 213 218 224 223 219 224 228 227 229 224 234 243 242 256 275 280 292 290 298 282 280 270 265 241 233 228 207 238 251 253 258 297 295 308 281 344 68 113 90 120 152 157
214 217 223 224 217 218 216 226 230 218 228 238 261 263 273 279 290 283 278 273 265 278 267 254 251 240 249 221 234 247 268 252 265 282 275 265 263 263 228 206 163 151 160
212 217 220 233 226 217 214 214 222 224 220 235 258 286 258 266 263 265 270 277 273 264 264 258 253 261 259 228 250 264 273 244 254 264 267 262 257 254 249 245 221 201 192
220 217 229 233 230 234 220 226 230 234 222 228 243 262 250 263 266 283 280 282 265 250 250 243 251 259 259 239 249 260 266 248 245 251 255 259 258 253 252 244 238 229 226
218 218 226 235 240 239 234 218 225 221 216 227 231 243 250 262 267 267 276 269 261 252 247 254 263 260 265 255 249 248 248 247 252 252 252 255 256 251 256 256 249 241 233
211 218 223 240 252 247 235 226 240 243 231 230 238 244 238 245 277 266 281 305 279 277 267 264 260 266 260 260 255 243 243 250 248 254 259 263 265 252 252 257 258 253 246
215 218 225 239 248 252 253 248 251 255 245 246 243 242 239 254 270 248 269 283 282 306 292 286 271 268 262 261 257 255 247 251 256 262 268 266 260 254 253 254 256 257 257
212 221 223 229 247 260 270 268 261 255 243 238 246 245 244 257 254 264 272 275 284 276 283 291 286 277 276 269 266 262 256 254 256 257 263 268 268 264 258 252 256 256 254
Wind_Speed_850mb
40 33 27 23 22 22 23 27 30 29 28 26 25 25 25 24 23 21 19 16 13 10 7 7 9 11 13 13 11 15 19 18 16 16 16 14 13 13 15 16 15 20 21
44 35 30 26 25 24 27 30 30 29 28 26 26 26 27 28 28 27 25 22 19 15 12 10 11 13 16 17 14 16 17 16 16 14 12 10 9 8 8 10 17 18 19
41 36 32 27 26 28 29 29 29 29 27 26 26 27 28 29 30 30 29 26 23 21 20 18 16 15 16 17 16 19 18 17 16 15 13 14 10 8 10 11 15 17 18
39 36 33 30 30 30 29 28 28 27 25 26 26 28 29 29 29 31 30 28 25 24 24 22 20 15 15 17 18 21 18 15 14 9 8 12 8 7 11 14 15 17 19
38 33 31 30 30 29 29 28 26 26 25 26 28 29 28 28 29 29 29 28 27 27 25 24 23 23 21 21 22 21 15 13 16 18 26 15 13 14 14 15 17 17 18
36 32 31 30 29 28 28 27 25 24 25 27 28 27 28 29 28 28 28 27 27 26 27 27 27 27 25 24 19 17 12 8 10 15 21 18 14 14 13 10 13 16 19
34 31 30 29 29 27 26 25 23 24 25 25 26 27 28 30 30 30 28 26 25 24 26 26 25 23 22 14 9 7 8 16 16 16 8 8 7 7 9 12 13 17 19
23 29 30 31 28 26 26 24 23 23 23 24 25 25 29 34 34 34 31 27 24 24 24 23 21 19 19 13 9 10 10 11 18 12 11 8 8 7 11 14 16 19 21
25 24 28 31 29 28 26 23 22 22 22 22 22 23 27 31 37 39 36 30 28 20 20 20 19 24 25 17 16 16 19 16 8 12 15 20 18 15 16 17 18 20 21
17 18 24 28 27 25 24 23 21 20 21 21 19 17 21 26 30 33 33 32 31 23 19 24 28 30 24 18 19 17 17 19 14 16 3 13 16 17 20 21 20 20 22
22 22 17 21 23 22 21 20 19 19 19 19 16 14 17 21 21 26 27 25 29 23 21 18 17 20 15 12 12 11 9 10 8 7 6 7 7 10 10 14 15 17 24
26 24 21 18 20 18 17 16 15 16 17 15 13 10 12 15 16 16 16 18 14 19 15 13 9 15 18 6 5 7 12 17 18 15 8 5 3 2 7 12 16 18 17
20 27 24 23 29 14 18 10 12 11 10 11 8 5 9 9 11 10 8 7 8 14 13 20 12 6 13 4 16 4 6 13 16 17 15 5 5 7 10 12 19 20 20
29 27 28 24 19 14 13 8 11 10 12 8 9 10 9 6 5 8 7 5 8 7 4 18 12 17 21 17 13 8 9 7 12 18 21 12 6 5 6 7 19 17 20
30 33 30 29 21 17 13 13 9 9 5 3 2 4 3 5 2 10 9 5 4 8 6 14 7 15 10 16 12 2 3 1 10 16 17 13 6 4 4 9 13 17 20
34 35 33 29 24 21 18 17 15 17 10 5 4 5 8 12 14 15 10 7 11 9 5 9 4 13 5 8 6 5 10 7 16 19 15 11 6 3 8 11 14 16 16
43 38 37 33 29 29 28 22 16 16 12 9 12 17 17 18 13 14 15 8 15 12 9 13 14 19 9 12 11 7 9 6 15 12 9 11 11 7 6 10 13 16 18
43 44 46 41 36 42 36 31 24 19 18 19 17 22 20 19 18 15 14 13 15 19 16 18 10 10 15 19 16 21 15 9 12 11 5 6 9 10 9 8 11 14 16
51 47 43 43 39 42 55 48 38 33 33 23 22 20 22 22 19 17 7 17 18 25 28 19 12 13 16 24 15 28 26 23 17 14 7 5 4 3 5 10 9 11 14
54 50 43 37 38 36 43 49 42 35 26 24 27 28 24 20 19 19 17 20 22 26 27 22 12 22 24 31 22 19 27 35 28 25 19 16 12 7 5 5 6 10 12
59 52 51 42 46 42 43 41 42 38 24 23 16 18 17 20 24 24 26 26 25 22 14 19 19 22 24 30 25 25 21 40 41 35 32 30 27 21 16 13 11 13 14
60 57 48 47 46 38 41 36 31 30 28 21 19 24 23 26 24 27 26 27 26 24 22 22 27 26 24 32 36 34 24 34 53 49 46 45 42 36 31 27 26 22 20
69 67 50 46 40 36 34 37 35 35 39 34 33 30 19 20 20 21 23 22 22 22 27 30 32 35 35 30 37 36 18 28 28 42 59 59 58 54 47 41 38 38 34
57 53 43 40 37 34 33 39 41 43 40 30 30 28 25 25 16 13 6 9 16 19 24 30 33 41 43 39 35 52 50 41 25 24 34 43 53 70 65 59 49 49 48
50 43 34 34 36 35 37 40 36 40 35 24 28 33 32 26 22 20 17 14 10 11 17 21 31 37 42 45 41 41 55 51 52 54 60 53 47 59 72 72 64 58 57
44 38 36 31 30 28 32 36 39 35 38 37 31 35 33 29 25 27 27 26 25 21 15 19 24 33 37 47 49 47 51 63 62 56 49 56 60 57 61 73 75 77 70
Wind_Direction_850mb
176 163 159 156 150 139 128 120 111 106 98 88 81 75 72 69 66 62 58 57 58 65 81 108 121 124 118 117 133 122 118 125 121 115 113 111 107 95 78 74 94 102 115
170 160 160 158 149 135 130 121 117 108 97 87 79 75 73 71 69 64 58 56 58 61 64 77 104 116 120 131 147 132 128 119 109 108 112 113 113 108 86 86 100 106 112
161 157 157 154 142 132 129 123 113 102 91 81 77 76 76 72 69 65 60 60 64 66 65 72 87 104 122 136 135 134 135 129 119 109 109 90 89 95 100 106 107 109 117
154 155 155 151 140 136 128 121 112 101 91 86 85 83 76 70 67 64 61 64 69 72 73 74 78 91 109 118 126 134 138 124 103 95 116 138 105 122 115 114 115 111 115
150 154 152 144 140 132 127 124 114 101 93 90 86 82 78 73 68 61 59 61 62 68 73 76 79 81 91 101 113 118 119 110 89 99 119 118 113 109 116 117 112 118 116
147 154 150 143 138 134 134 126 112 101 94 92 91 88 81 72 67 60 57 60 66 71 79 82 78 76 81 86 107 113 91 40 120 142 121 112 102 113 128 134 128 126 123
155 153 149 145 141 137 135 126 115 101 97 100 98 88 78 70 61 57 55 58 64 73 82 87 85 77 69 67 79 63 68 59 149 149 104 92 133 147 150 148 145 138 132
159 156 155 149 144 140 141 132 117 110 109 107 99 94 83 74 65 58 53 54 62 74 84 89 93 76 56 56 39 49 52 82 134 110 89 106 86 137 144 148 146 147 142
157 161 158 152 150 151 146 137 128 120 118 115 110 100 89 81 67 59 57 55 55 72 83 84 80 68 81 69 70 55 74 83 93 88 98 80 79 102 116 127 133 142 145
148 166 162 157 156 153 150 145 136 129 125 123 123 107 87 80 64 59 56 61 49 59 83 96 84 82 77 59 87 90 67 76 57 357 41 116 123 115 109 107 120 135 142
121 133 154 160 159 157 157 151 144 138 136 131 125 105 84 78 71 58 47 49 48 55 80 104 100 81 72 47 94 82 50 58 37 354 140 140 150 155 165 145 131 132 134
147 142 130 152 167 155 161 158 155 152 145 139 132 114 78 77 59 50 45 26 46 44 64 54 92 67 61 189 225 73 49 42 55 57 48 113 144 208 221 210 166 163 177
172 164 156 139 152 130 141 135 174 164 144 153 160 100 95 61 46 41 69 17 9 22 22 34 19 73 45 75 203 187 49 93 55 37 27 9 317 307 281 229 144 147 163
187 181 167 167 170 168 162 134 158 163 141 133 115 78 95 42 346 354 341 355 347 354 2 26 44 113 74 95 127 128 70 57 39 17 11 352 288 246 214 166 155 160 158
190 187 183 185 176 180 177 166 179 205 159 112 181 352 208 294 274 290 305 311 278 301 342 7 31 150 70 125 136 142 158 306 346 338 347 352 320 252 166 139 149 154 156
190 188 194 196 184 187 186 197 218 218 190 175 190 297 276 292 255 280 280 283 304 315 320 6 12 173 99 167 166 14 321 316 332 333 355 13 20 81 125 138 143 149 155
201 198 204 211 206 214 211 209 214 207 213 233 283 268 254 280 304 300 274 263 299 284 307 314 297 229 212 216 242 299 347 332 342 348 1 29 43 60 112 137 146 149 149
204 203 200 206 222 228 218 206 215 212 220 241 254 245 250 272 292 311 279 261 293 289 278 277 271 242 211 192 244 266 264 285 329 336 346 55 42 61 92 116 137 146 149
215 213 218 224 223 219 224 228 227 229 224 234 243 242 256 275 280 292 290 298 282 280 270 265 241 233 228 207 238 251 253 258 297 295 308 281 344 68 113 90 120 152 157
214 217 223 224 217 218 216 226 230 218 228 238 261 263 273 279 290 283 278 273 265 278 267 254 251 240 249 221 234 247 268 252 265 282 275 265 263 263 228 206 163 151 160
212 217 220 233 226 217 214 214 222 224 220 235 258 286 258 266 263 265 270 277 273 264 264 258 253 261 259 228 250 264 273 244 254 264 267 262 257 254 249 245 221 201 192
220 217 229 233 230 234 220 226 230 234 222 228 243 262 250 263 266 283 280 282 265 250 250 243 251 259 259 239 249 260 266 248 245 251 255 259 258 253 252 244 238 229 226
218 218 226 235 240 239 234 218 225 221 216 227 231 243 250 262 267 267 276 269 261 252 247 254 263 260 265 255 249 248 248 247 252 252 252 255 256 251 256 256 249 241 233
211 218 223 240 252 247 235 226 240 243 231 230 238 244 238 245 277 266 281 305 279 277 267 264 260 266 260 260 255 243 243 250 248 254 259 263 265 252 252 257 258 253 246
215 218 225 239 248 252 253 248 251 255 245 246 243 242 239 254 270 248 269 283 282 306 292 286 271 268 262 261 257 255 247 251 256 262 268 266 260 254 253 254 256 257 257
212 221 223 229 247 260 270 268 261 255 243 238 246 245 244 257 254 264 272 275 284 276 283 291 286 277 276 269 266 262 256 254 256 257 263 268 268 264 258 252 256 256 254